Regional Weather Roundup
Issued by NWS

Home | Current Version | Previous Version | Text Only | Print | Product List | Glossary On
Versions: 1 2 3 4 5 6 7 8 9 10 11 12 13 14 15 16 17 18 19 20 21 22 23 24 25 26 27 28 29 30 31 32 33 34 35 36 37 38 39 40 41 42 43 44 45 46 47 48 49 50
000
ASUS43 KDTX 051010
RWRMI
MICHIGAN HOURLY REGIONAL WEATHER ROUNDUP
NATIONAL WEATHER SERVICE DETROIT/PONTIAC MI
600 AM EDT TUE MAY 05 2015

NOTE: "FAIR" INDICATES FEW OR NO CLOUDS BELOW 12,000 FEET WITH NO
SIGNIFICANT WEATHER AND/OR OBSTRUCTION TO VISIBILITY.

MIZ047>049-052>055-059>063-066>070-074>076-081>083-051100-
SOUTHEAST LOWER MICHIGAN

CITY           SKY/WX    TMP DP  RH WIND       PRES   REMARKS
ADRIAN         CLOUDY    57  42  57 E6        30.24R
ALMA           CLOUDY    53  38  55 NE6       30.27R
ANN ARBOR      CLOUDY    56  36  47 E8        30.24R
BAD AXE        MOCLDY    45  36  72 N6        30.28S
CARO           CLOUDY    47  37  68 CALM      30.27S
DETROIT CITY   MOCLDY    53  36  52 NE10      30.26R
DETROIT        CLOUDY    57  36  45 NE9       30.25R
FLINT          CLOUDY    54  36  50 E14       30.26R
GROSSE ILE     MOCLDY    54  43  66 NE10      30.23R
HILLSDALE      CLOUDY    58  52  80 E8        30.23R
HOWELL         CLOUDY    55  36  48 NE7       30.24R

CITY           SKY/WX    TMP DP  RH WIND       PRES   REMARKS
JACKSON        CLOUDY    56  37  49 E7        30.23R
LAMBERTVILLE   CLOUDY    59  50  72 E8        30.23R
LANSING        CLOUDY    54  40  59 E7        30.25R
LAPEER         MOCLDY    49  34  57 E6        30.27S
MASON          CLOUDY    53  38  57 E6        30.24R
MONROE         CLOUDY    57  45  62 NE12      30.22R
PONTIAC        CLOUDY    52  34  50 NE9       30.25R
PORT HOPE        N/A     46  38  73 NW8       30.27R
PORT HURON     CLOUDY    48  36  61 N6        30.27R
TRI CITIES     CLOUDY    51  40  65 E9        30.28R
MIDLAND        FAIR      51  36  57 NE3       30.27R
TROY           CLOUDY    54  34  47 NE9G16    30.27R
SAGINAW HB     CLOUDY    46  37  71 E7        30.27S
$$
MIZ043>046-050>051-056>058-064>065-071>073-077>080-051100-
SOUTHWEST LOWER MICHIGAN

CITY           SKY/WX    TMP DP  RH WIND       PRES   REMARKS
BATTLE CREEK   CLOUDY    56  44  64 NE7       30.23R
BENTON HARBOR  HVY RAIN  54  52  93 CALM      30.21R FOG
BIG RAPIDS     CLOUDY    48  38  67 CALM      30.26R
COLDWATER      CLOUDY    56  50  81 CALM      30.21R
FREMONT        CLOUDY    53  33  46 E8        30.23S
HOLLAND        CLOUDY    56  42  59 E6        30.23R
GRAND RAPIDS   CLOUDY    55  41  59 E10       30.23R
IONIA          CLOUDY    53  43  69 NE7       30.24R
KALAMAZOO      CLOUDY    56  42  59 CALM      30.22R
LUDINGTON      CLOUDY    51  38  62 NE5       30.26S
MARSHALL       CLOUDY    54  44  69 W5        30.22R
MOUNT PLEASANT CLOUDY    49  37  64 N3        30.27R
MUSKEGON       CLOUDY    56  37  49 E9        30.23R
SOUTH HAVEN    CLOUDY    57  43  59 E6        30.20S
$$
MIZ016>042-051100-
NORTHERN LOWER MICHIGAN

CITY           SKY/WX    TMP DP  RH WIND       PRES   REMARKS
ALPENA         PTCLDY    39  34  82 CALM      30.29R
BEAVER ISLAND  PTCLDY    32  32  99 CALM      30.32R
BELLAIRE       MOCLDY    33  32  95 CALM      30.30S
CADILLAC       CLOUDY    36  32  86 CALM      30.27S
CHARLEVOIX     PTCLDY    37  35  93 SE3       30.33R
FRANKFORT      CLOUDY    51  29  44 E7        30.27S
GAYLORD        MOCLDY    41  35  79 VRB3      30.29R
GRAYLING       MOCLDY    32  30  94 CALM      30.30R
HARBOR SPRINGS PTCLDY    34  32  93 NE3       30.31R
MANISTEE       CLOUDY    45  32  61 SE3       30.28S
OSCODA         CLOUDY    36  33  91 CALM      30.28R
PELLSTON       PTCLDY    27  25  92 CALM      30.32R
ROGERS CITY    FAIR      39  35  86 W3        30.31R
TRAVERSE CITY  MOCLDY    36  33  89 CALM      30.29R
$$
MIZ007>008-015-051100-
EASTERN UPPER MICHIGAN

CITY           SKY/WX    TMP DP  RH WIND       PRES   REMARKS
KINROSS        CLEAR     32  32 100 SW3       30.30S
MACKINAC ISLAN CLEAR     38  35  87 N7        30.30S WCI  33
NEWBERRY       CLEAR     33  32  96 CALM      30.31S
S. S. MARIE    CLEAR     35  32  88 W3        30.30R
MUNISING         N/A     36  31  82 S10       30.30R WCI  28
$$
MIZ004>006-011>014-085-051100-
CENTRAL UPPER MICHIGAN

CITY           SKY/WX    TMP DP  RH WIND       PRES   REMARKS
MANISTIQUE     CLEAR     34  32  92 N3        30.31R
ESCANABA       PTCLDY    34  30  86 CALM      30.30S
MENOMINEE      MOCLDY    41  34  75 N6        30.28F
SAWYER-GWINN   CLEAR     31  28  87 CALM      30.30S
$$
MIZ001>003-009>011-084-051100-
WESTERN UPPER MICHIGAN

CITY           SKY/WX    TMP DP  RH WIND       PRES   REMARKS
IRON MOUNTAIN  PTCLDY    34  31  88 NW3       30.30S
HOUGHTON       CLEAR     40  29  64 W3        30.27S
COPPER HARBOR    N/A     47  32  56 SW5       30.27S
IRONWOOD       CLEAR     34  30  86 CALM      30.25F
$$

ABBREVIATIONS USED IN REMARKS
   TC - TEMPERATURE IN CELSIUS
  WCI - WIND CHILL INDEX
   HX - HEAT INDEX
  VSB - VISIBILITY



USA.gov is the U.S. government's official web portal to all federal, state and local government web resources and services.